SB KEPS @ AMSAT $ORB13283.O Orbital Elements 13283.OSCAR
HR AMSAT ORBITAL ELEMENTS FOR OSCAR SATELLITES FROM WA5QGD FORT WORTH,TX October 10, 2013 BID: ORB13283.O TO ALL RADIO AMATEURS BT
Satellite: AO-07 Catalog number: 07530 Epoch time: 13283.18771073 Element set: 796 Inclination: 101.4442 deg RA of node: 268.5667 deg Eccentricity: 0.0012349 Arg of perigee: 064.1861 deg Mean anomaly: 359.1458 deg Mean motion: 12.53598651 rev/day Decay rate: 1.0e-08 rev/day^2 Epoch rev: 78019 Checksum: 314
Satellite: FO-29 Catalog number: 24278 Epoch time: 13282.69696498 Element set: 217 Inclination: 098.5412 deg RA of node: 325.8740 deg Eccentricity: 0.0349985 Arg of perigee: 227.2348 deg Mean anomaly: 249.3443 deg Mean motion: 13.53007129 rev/day Decay rate: -1.6e-07 rev/day^2 Epoch rev: 84679 Checksum: 354
Satellite: SO-33 Catalog number: 25509 Epoch time: 13282.82218635 Element set: 600 Inclination: 031.4301 deg RA of node: 138.5354 deg Eccentricity: 0.0350736 Arg of perigee: 081.6086 deg Mean anomaly: 021.5836 deg Mean motion: 14.29148314 rev/day Decay rate: 6.98e-06 rev/day^2 Epoch rev: 78130 Checksum: 292
Satellite: RS-22 Catalog number: 27939 Epoch time: 13283.85155520 Element set: 842 Inclination: 097.7978 deg RA of node: 105.6841 deg Eccentricity: 0.0012981 Arg of perigee: 176.0159 deg Mean anomaly: 184.1170 deg Mean motion: 14.64595558 rev/day Decay rate: 7.98e-06 rev/day^2 Epoch rev: 53622 Checksum: 344
Satellite: VO-52 Catalog number: 28650 Epoch time: 13283.70168251 Element set: 548 Inclination: 097.5655 deg RA of node: 296.3789 deg Eccentricity: 0.0024260 Arg of perigee: 258.7809 deg Mean anomaly: 231.2297 deg Mean motion: 14.84183098 rev/day Decay rate: 1.254e-05 rev/day^2 Epoch rev: 45621 Checksum: 337
Satellite: HO-68 Catalog number: 36122 Epoch time: 13283.80843615 Element set: 965 Inclination: 100.2911 deg RA of node: 337.8659 deg Eccentricity: 0.0007687 Arg of perigee: 089.4198 deg Mean anomaly: 270.7793 deg Mean motion: 13.16307320 rev/day Decay rate: -4.4e-07 rev/day^2 Epoch rev: 18362 Checksum: 323
/EX SB KEPS @ AMSAT $ORB13283.D Orbital Elements 13283.MICROS
HR AMSAT ORBITAL ELEMENTS FOR THE MICROSATS FROM WA5QGD FORT WORTH,TX October 10, 2013 BID: ORB13283.D TO ALL RADIO AMATEURS BT
Satellite: UO-11 Catalog number: 14781 Epoch time: 13283.77778161 Element set: 307 Inclination: 097.8898 deg RA of node: 343.3588 deg Eccentricity: 0.0007472 Arg of perigee: 270.4554 deg Mean anomaly: 089.5802 deg Mean motion: 14.81034594 rev/day Decay rate: 5.05e-06 rev/day^2 Epoch rev: 59104 Checksum: 334
Satellite: AO-16 Catalog number: 20439 Epoch time: 13283.07820957 Element set: 859 Inclination: 098.4806 deg RA of node: 220.4828 deg Eccentricity: 0.0011209 Arg of perigee: 173.1163 deg Mean anomaly: 251.0252 deg Mean motion: 14.32211917 rev/day Decay rate: 1.10e-06 rev/day^2 Epoch rev: 23868 Checksum: 285
Satellite: LO-19 Catalog number: 20442 Epoch time: 13283.46330067 Element set: 796 Inclination: 098.4505 deg RA of node: 222.2807 deg Eccentricity: 0.0012398 Arg of perigee: 162.7917 deg Mean anomaly: 334.4897 deg Mean motion: 14.32420771 rev/day Decay rate: 1.05e-06 rev/day^2 Epoch rev: 23893 Checksum: 310
Satellite: AO-27 Catalog number: 22825 Epoch time: 13282.91621873 Element set: 498 Inclination: 098.6299 deg RA of node: 225.7836 deg Eccentricity: 0.0007462 Arg of perigee: 316.8489 deg Mean anomaly: 089.0339 deg Mean motion: 14.29595472 rev/day Decay rate: 8.7e-07 rev/day^2 Epoch rev: 4502 Checksum: 353
Satellite: IO-26 Catalog number: 22826 Epoch time: 13283.45925995 Element set: 253 Inclination: 098.6242 deg RA of node: 226.5853 deg Eccentricity: 0.0007882 Arg of perigee: 307.1568 deg Mean anomaly: 132.0098 deg Mean motion: 14.29883585 rev/day Decay rate: 1.10e-06 rev/day^2 Epoch rev: 4523 Checksum: 322
Satellite: GO-32 Catalog number: 25397 Epoch time: 13282.84277527 Element set: 178 Inclination: 098.4314 deg RA of node: 245.6989 deg Eccentricity: 0.0000880 Arg of perigee: 028.9569 deg Mean anomaly: 026.1772 deg Mean motion: 14.23362667 rev/day Decay rate: 4.3e-07 rev/day^2 Epoch rev: 79225 Checksum: 340
Satellite: NO-44 Catalog number: 26931 Epoch time: 13283.31817134 Element set: 438 Inclination: 067.0521 deg RA of node: 322.7087 deg Eccentricity: 0.0007496 Arg of perigee: 265.4000 deg Mean anomaly: 220.7662 deg Mean motion: 14.29965274 rev/day Decay rate: 9.5e-07 rev/day^2 Epoch rev: 62788 Checksum: 312
Satellite: SO-50 Catalog number: 27607 Epoch time: 13283.41306549 Element set: 193 Inclination: 064.5564 deg RA of node: 273.3137 deg Eccentricity: 0.0033717 Arg of perigee: 118.9076 deg Mean anomaly: 039.1167 deg Mean motion: 14.73100495 rev/day Decay rate: 6.32e-06 rev/day^2 Epoch rev: 58068 Checksum: 307
Satellite: CO-55 Catalog number: 27844 Epoch time: 13283.46870425 Element set: 760 Inclination: 098.7024 deg RA of node: 290.8731 deg Eccentricity: 0.0008589 Arg of perigee: 275.8328 deg Mean anomaly: 254.4767 deg Mean motion: 14.21279924 rev/day Decay rate: 2.37e-06 rev/day^2 Epoch rev: 53310 Checksum: 336
Satellite: CO-57 Catalog number: 27848 Epoch time: 13283.83453824 Element set: 703 Inclination: 098.7110 deg RA of node: 290.8080 deg Eccentricity: 0.0008511 Arg of perigee: 281.4405 deg Mean anomaly: 201.8065 deg Mean motion: 14.20998249 rev/day Decay rate: 1.91e-06 rev/day^2 Epoch rev: 53308 Checksum: 307
Satellite: AO-51 Catalog number: 28375 Epoch time: 13283.77695381 Element set: 675 Inclination: 098.2163 deg RA of node: 234.6781 deg Eccentricity: 0.0083786 Arg of perigee: 027.3501 deg Mean anomaly: 012.5848 deg Mean motion: 14.41170361 rev/day Decay rate: 2.52e-06 rev/day^2 Epoch rev: 48798 Checksum: 333
Satellite: CP3 Catalog number: 31129 Epoch time: 13283.55815262 Element set: 571 Inclination: 097.9086 deg RA of node: 269.7527 deg Eccentricity: 0.0101133 Arg of perigee: 068.7753 deg Mean anomaly: 068.7436 deg Mean motion: 14.53835089 rev/day Decay rate: 1.014e-05 rev/day^2 Epoch rev: 34375 Checksum: 321
Satellite: CO-65 Catalog number: 32785 Epoch time: 13283.40352148 Element set: 758 Inclination: 097.7379 deg RA of node: 337.5846 deg Eccentricity: 0.0012744 Arg of perigee: 290.0302 deg Mean anomaly: 133.0428 deg Mean motion: 14.84153855 rev/day Decay rate: 1.213e-05 rev/day^2 Epoch rev: 29496 Checksum: 323
Satellite: PRISM Catalog number: 33493 Epoch time: 13283.80598588 Element set: 255 Inclination: 098.2307 deg RA of node: 084.6974 deg Eccentricity: 0.0018011 Arg of perigee: 173.3910 deg Mean anomaly: 186.7575 deg Mean motion: 14.86588791 rev/day Decay rate: 2.682e-05 rev/day^2 Epoch rev: 25509 Checksum: 347
Satellite: SOHLA-1 Catalog number: 33496 Epoch time: 13283.56107179 Element set: 168 Inclination: 098.1468 deg RA of node: 039.3599 deg Eccentricity: 0.0005440 Arg of perigee: 322.4633 deg Mean anomaly: 166.5014 deg Mean motion: 14.70387968 rev/day Decay rate: 3.83e-06 rev/day^2 Epoch rev: 25282 Checksum: 323
Satellite: SO-67 Catalog number: 35870 Epoch time: 13283.84324358 Element set: 501 Inclination: 097.1838 deg RA of node: 308.4914 deg Eccentricity: 0.0000419 Arg of perigee: 019.4332 deg Mean anomaly: 067.0153 deg Mean motion: 15.28206173 rev/day Decay rate: 4.939e-05 rev/day^2 Epoch rev: 22591 Checksum: 307
Satellite: TISAT-1 Catalog number: 36799 Epoch time: 13283.79040808 Element set: 522 Inclination: 098.0303 deg RA of node: 009.1680 deg Eccentricity: 0.0015507 Arg of perigee: 056.0034 deg Mean anomaly: 304.2633 deg Mean motion: 14.83726686 rev/day Decay rate: 1.722e-05 rev/day^2 Epoch rev: 17571 Checksum: 294
Satellite: STUDSAT Catalog number: 36801 Epoch time: 13283.54951772 Element set: 694 Inclination: 098.0427 deg RA of node: 013.2220 deg Eccentricity: 0.0011525 Arg of perigee: 037.1626 deg Mean anomaly: 323.0890 deg Mean motion: 14.89686681 rev/day Decay rate: 1.6637e-04 rev/day^2 Epoch rev: 17588 Checksum: 314
Satellite: ALMASAT-1 Catalog number: 38078 Epoch time: 13283.81719709 Element set: 689 Inclination: 069.4767 deg RA of node: 291.6125 deg Eccentricity: 0.0675288 Arg of perigee: 358.0887 deg Mean anomaly: 001.7971 deg Mean motion: 14.29920637 rev/day Decay rate: 3.6803e-04 rev/day^2 Epoch rev: 8574 Checksum: 369
Satellite: XATCOBEO Catalog number: 38082 Epoch time: 13283.70643779 Element set: 570 Inclination: 069.4716 deg RA of node: 251.9774 deg Eccentricity: 0.0514315 Arg of perigee: 336.3618 deg Mean anomaly: 021.4576 deg Mean motion: 14.71533071 rev/day Decay rate: 1.45100e-03 rev/day^2 Epoch rev: 8682 Checksum: 308
Satellite: SOMP Catalog number: 39135 Epoch time: 13283.77147648 Element set: 346 Inclination: 064.8778 deg RA of node: 205.4101 deg Eccentricity: 0.0002906 Arg of perigee: 301.9272 deg Mean anomaly: 058.2076 deg Mean motion: 15.01021095 rev/day Decay rate: 1.0241e-04 rev/day^2 Epoch rev: 2617 Checksum: 272
Satellite: CUBEBUG-1 Catalog number: 39153 Epoch time: 13283.81313626 Element set: 472 Inclination: 098.0663 deg RA of node: 359.5223 deg Eccentricity: 0.0019611 Arg of perigee: 074.1391 deg Mean anomaly: 286.1980 deg Mean motion: 14.76649086 rev/day Decay rate: 9.19e-06 rev/day^2 Epoch rev: 2474 Checksum: 317
Satellite: ESTCUBE-1 Catalog number: 39161 Epoch time: 13283.68136778 Element set: 443 Inclination: 098.1209 deg RA of node: 001.2938 deg Eccentricity: 0.0011287 Arg of perigee: 102.7635 deg Mean anomaly: 257.4855 deg Mean motion: 14.69143631 rev/day Decay rate: 8.28e-06 rev/day^2 Epoch rev: 2295 Checksum: 310
/EX SB KEPS @ AMSAT $ORB13283.W Orbital Elements 13283.WEATHER
HR AMSAT ORBITAL ELEMENTS FOR WEATHER SATELLITES FROM WA5QGD FORT WORTH,TX October 10, 2013 BID: ORB13283.W TO ALL RADIO AMATEURS BT
Satellite: NOAA-10 Catalog number: 16969 Epoch time: 13283.49244131 Element set: 526 Inclination: 098.5377 deg RA of node: 308.7746 deg Eccentricity: 0.0011145 Arg of perigee: 265.6895 deg Mean anomaly: 231.3626 deg Mean motion: 14.27668883 rev/day Decay rate: 7.4e-07 rev/day^2 Epoch rev: 40839 Checksum: 339
